NJE225 EHAM-EDDP

Flight info

Callsign NJE225
Flight time 0h 47m
Altitude 39000
Route ARNEM L620 HMM DCT NORTA/N0475F230 DCT ADMOS T959 KOJEC KOJEC1R
Aircraft C750/M-SBDE3FGHRWXY/S

Departure

Time 2026-05-07 19:01
Airport Amsterdam Airport Schiphol (EHAM)

Arrival

Time 2026-05-07 19:49
Airport Leipzig/Halle Airport (EDDP)
Time Latitude Longitude Altitude Speed Heading
2026-05-07 18:22 52.30165 4.75669 -6 ft 0 kts 238°
2026-05-07 18:48 52.30177 4.75697 -6 ft 4 kts 222°
2026-05-07 18:48 52.30199 4.75717 -6 ft 4 kts 182°
2026-05-07 18:49 52.30217 4.75712 -6 ft 0 kts 148°
2026-05-07 18:57 52.30212 4.75716 -6 ft 6 kts 148°
2026-05-07 18:57 52.30143 4.75787 -6 ft 16 kts 148°
2026-05-07 18:57 52.30044 4.75864 -6 ft 10 kts 205°
2026-05-07 18:57 52.29983 4.75706 -6 ft 21 kts 238°
2026-05-07 18:58 52.29898 4.75483 -6 ft 25 kts 238°
2026-05-07 18:58 52.29830 4.75247 -6 ft 22 kts 280°
2026-05-07 18:58 52.29931 4.75027 -6 ft 26 kts 311°
2026-05-07 18:58 52.30050 4.74807 -6 ft 26 kts 311°
2026-05-07 18:59 52.30161 4.74602 2 ft 22 kts 311°
2026-05-07 18:59 52.30255 4.74429 4 ft 20 kts 311°
2026-05-07 18:59 52.30320 4.74309 -3 ft 0 kts 311°
2026-05-07 18:59 52.30322 4.74305 -4 ft 2 kts 311°
2026-05-07 19:00 52.30352 4.74249 -6 ft 9 kts 311°
2026-05-07 19:00 52.30374 4.74148 -6 ft 10 kts 262°
2026-05-07 19:00 52.30335 4.74049 -6 ft 13 kts 219°
2026-05-07 19:00 52.30230 4.73925 -6 ft 14 kts 220°
2026-05-07 19:01 52.30188 4.73796 -6 ft 13 kts 279°
2026-05-07 19:01 52.30284 4.73741 -8 ft 41 kts
2026-05-07 19:01 52.30970 4.73807 52 ft 136 kts
2026-05-07 19:01 52.31974 4.73909 651 ft 152 kts
2026-05-07 19:02 52.33046 4.74345 1424 ft 160 kts 21°
2026-05-07 19:02 52.34113 4.74934 2168 ft 172 kts 21°
2026-05-07 19:02 52.35335 4.75593 2640 ft 199 kts 20°
2026-05-07 19:02 52.36723 4.76339 3187 ft 216 kts 20°
2026-05-07 19:03 52.38084 4.77355 3932 ft 219 kts 39°
2026-05-07 19:03 52.39154 4.79158 4730 ft 221 kts 49°
2026-05-07 19:03 52.40230 4.81015 5483 ft 228 kts 47°
2026-05-07 19:03 52.41349 4.82881 6304 ft 230 kts 46°
2026-05-07 19:04 52.42260 4.85067 6904 ft 240 kts 73°
2026-05-07 19:04 52.42420 4.87943 7376 ft 268 kts 92°
2026-05-07 19:04 52.42381 4.91078 8309 ft 278 kts 92°
2026-05-07 19:04 52.42378 4.94253 9571 ft 281 kts 90°
2026-05-07 19:05 52.42214 4.97482 10317 ft 294 kts 106°
2026-05-07 19:05 52.41611 4.99528 10447 ft 312 kts 126°
2026-05-07 19:05 52.39944 5.02027 10562 ft 340 kts 145°
2026-05-07 19:05 52.37921 5.04163 11184 ft 347 kts 149°
2026-05-07 19:06 52.35965 5.06200 11953 ft 352 kts 149°
2026-05-07 19:06 52.32708 5.12205 13411 ft 364 kts 115°
2026-05-07 19:06 52.31792 5.16102 14129 ft 369 kts 110°
2026-05-07 19:07 52.31110 5.20159 14721 ft 375 kts 101°
2026-05-07 19:07 52.30821 5.24408 15439 ft 377 kts 95°
2026-05-07 19:07 52.30654 5.28694 16156 ft 380 kts 94°
2026-05-07 19:07 52.30376 5.33016 16845 ft 384 kts 98°
2026-05-07 19:08 52.29960 5.37355 17584 ft 388 kts 100°
2026-05-07 19:08 52.29580 5.41743 18358 ft 392 kts 98°
2026-05-07 19:08 52.29271 5.46197 19015 ft 396 kts 97°
2026-05-07 19:08 52.28948 5.50634 19699 ft 399 kts 98°
2026-05-07 19:09 52.28572 5.55157 20394 ft 403 kts 98°
2026-05-07 19:09 52.28193 5.59722 21066 ft 408 kts 98°
2026-05-07 19:09 52.27834 5.64339 21742 ft 412 kts 98°
2026-05-07 19:09 52.27469 5.69011 22401 ft 417 kts 98°
2026-05-07 19:10 52.27083 5.73726 23041 ft 421 kts 98°
2026-05-07 19:10 52.26693 5.78484 23675 ft 426 kts 98°
2026-05-07 19:10 52.26304 5.83308 24215 ft 429 kts 98°
2026-05-07 19:10 52.25909 5.88160 24770 ft 433 kts 98°
2026-05-07 19:11 52.25506 5.93043 25316 ft 436 kts 98°
2026-05-07 19:11 52.25098 5.97963 25853 ft 440 kts 98°
2026-05-07 19:11 52.24685 6.02933 26406 ft 443 kts 98°
2026-05-07 19:11 52.24268 6.07945 26960 ft 447 kts 98°
2026-05-07 19:12 52.23844 6.12990 27513 ft 451 kts 99°
2026-05-07 19:12 52.23414 6.18073 28069 ft 454 kts 99°
2026-05-07 19:12 52.22979 6.23197 28633 ft 458 kts 99°
2026-05-07 19:12 52.22543 6.28302 29169 ft 462 kts 99°
2026-05-07 19:13 52.22097 6.33512 29704 ft 465 kts 99°
2026-05-07 19:13 52.21644 6.38759 30235 ft 469 kts 99°
2026-05-07 19:13 52.21186 6.44040 30658 ft 473 kts 99°
2026-05-07 19:13 52.20722 6.49367 31108 ft 475 kts 99°
2026-05-07 19:14 52.20256 6.54680 31803 ft 472 kts 99°
2026-05-07 19:14 52.19790 6.59972 32494 ft 470 kts 99°
2026-05-07 19:14 52.19322 6.65252 33172 ft 469 kts 99°
2026-05-07 19:14 52.18855 6.70498 33871 ft 467 kts 99°
2026-05-07 19:15 52.18388 6.75725 34482 ft 466 kts 99°
2026-05-07 19:15 52.17923 6.80889 34975 ft 456 kts 99°
2026-05-07 19:15 52.17455 6.86065 35056 ft 467 kts 99°
2026-05-07 19:15 52.16977 6.91313 35528 ft 468 kts 99°
2026-05-07 19:16 52.16499 6.96557 36076 ft 468 kts 99°
2026-05-07 19:16 52.16017 7.01810 36585 ft 469 kts 99°
2026-05-07 19:16 52.15531 7.07067 37103 ft 470 kts 100°
2026-05-07 19:16 52.15042 7.12339 37640 ft 471 kts 100°
2026-05-07 19:17 52.14551 7.17617 38170 ft 472 kts 100°
2026-05-07 19:17 52.14055 7.22908 38701 ft 473 kts 100°
2026-05-07 19:17 52.13556 7.28210 39083 ft 476 kts 100°
2026-05-07 19:17 52.13050 7.33545 39094 ft 488 kts 100°
2026-05-07 19:18 52.12525 7.39066 39094 ft 500 kts 100°
2026-05-07 19:18 52.11984 7.44728 39107 ft 510 kts 100°
2026-05-07 19:18 52.10868 7.56318 39114 ft 526 kts 100°
2026-05-07 19:19 52.09713 7.68185 39114 ft 534 kts 100°
2026-05-07 19:19 52.08535 7.80148 39111 ft 536 kts 100°
2026-05-07 19:20 52.07341 7.92134 39113 ft 537 kts 100°
2026-05-07 19:20 52.06135 8.04106 39107 ft 537 kts 100°
2026-05-07 19:21 52.04921 8.16086 39105 ft 537 kts 100°
2026-05-07 19:21 52.03688 8.28052 39109 ft 537 kts 101°
2026-05-07 19:22 52.02459 8.39924 39109 ft 537 kts 101°
2026-05-07 19:22 52.01202 8.51891 39106 ft 537 kts 101°
2026-05-07 19:23 51.99936 8.63856 39102 ft 537 kts 101°
2026-05-07 19:23 51.98655 8.75813 39102 ft 537 kts 101°
2026-05-07 19:24 51.97365 8.87761 39100 ft 538 kts 101°
2026-05-07 19:24 51.96060 8.99694 39106 ft 537 kts 101°
2026-05-07 19:25 51.95404 9.05623 38990 ft 522 kts 101°
2026-05-07 19:25 51.94796 9.11224 38332 ft 502 kts 101°
2026-05-07 19:25 51.94196 9.16701 37627 ft 484 kts 101°
2026-05-07 19:25 51.93600 9.21990 36944 ft 470 kts 101°
2026-05-07 19:26 51.93013 9.27160 36290 ft 463 kts 101°
2026-05-07 19:26 51.92439 9.32283 35664 ft 462 kts 101°
2026-05-07 19:26 51.91863 9.37414 35059 ft 463 kts 101°
2026-05-07 19:26 51.91282 9.42536 34476 ft 462 kts 100°
2026-05-07 19:27 51.90698 9.47645 33859 ft 461 kts 100°
2026-05-07 19:27 51.90113 9.52771 33176 ft 464 kts 100°
2026-05-07 19:27 51.89524 9.57916 32504 ft 465 kts 100°
2026-05-07 19:27 51.88930 9.63079 31856 ft 466 kts 100°
2026-05-07 19:28 51.88332 9.68241 31220 ft 468 kts 101°
2026-05-07 19:28 51.87728 9.73440 30599 ft 471 kts 101°
2026-05-07 19:28 51.87132 9.78550 29961 ft 465 kts 100°
2026-05-07 19:28 51.86453 9.83623 29236 ft 459 kts 103°
2026-05-07 19:29 51.85754 9.88641 28536 ft 455 kts 102°
2026-05-07 19:29 51.85126 9.93654 27855 ft 451 kts 101°
2026-05-07 19:29 51.84472 9.98589 27183 ft 447 kts 103°
2026-05-07 19:29 51.83767 10.03460 26533 ft 443 kts 103°
2026-05-07 19:30 51.83079 10.08304 25891 ft 440 kts 103°
2026-05-07 19:30 51.82428 10.13093 25275 ft 426 kts 102°
2026-05-07 19:30 51.81807 10.17645 25103 ft 408 kts 103°
2026-05-07 19:30 51.81167 10.22181 25106 ft 414 kts 103°
2026-05-07 19:31 51.80522 10.26724 25107 ft 417 kts 103°
2026-05-07 19:31 51.79882 10.31303 25114 ft 418 kts 103°
2026-05-07 19:31 51.79245 10.35883 25112 ft 418 kts 103°
2026-05-07 19:31 51.78599 10.40469 25112 ft 418 kts 103°
2026-05-07 19:32 51.77945 10.45042 25106 ft 418 kts 103°
2026-05-07 19:32 51.77285 10.49639 25061 ft 427 kts 103°
2026-05-07 19:32 51.76621 10.54350 24581 ft 429 kts 103°
2026-05-07 19:32 51.75955 10.59057 24096 ft 429 kts 103°
2026-05-07 19:33 51.75276 10.63744 23619 ft 428 kts 103°
2026-05-07 19:33 51.74599 10.68409 23062 ft 425 kts 103°
2026-05-07 19:33 51.73933 10.73041 22513 ft 422 kts 103°
2026-05-07 19:33 51.73279 10.77579 21918 ft 419 kts 103°
2026-05-07 19:34 51.72616 10.82129 21262 ft 414 kts 103°
2026-05-07 19:34 51.71733 10.86517 20593 ft 410 kts 111°
2026-05-07 19:34 51.70682 10.90765 19970 ft 406 kts 112°
2026-05-07 19:34 51.69639 10.94967 19357 ft 402 kts 111°
2026-05-07 19:35 51.68968 10.97750 18959 ft 400 kts 111°
2026-05-07 19:35 51.67635 11.03313 18133 ft 396 kts 111°
2026-05-07 19:35 51.66624 11.07430 17457 ft 391 kts 112°
2026-05-07 19:35 51.65626 11.11476 16796 ft 387 kts 112°
2026-05-07 19:36 51.64657 11.15439 16160 ft 383 kts 111°
2026-05-07 19:36 51.63684 11.19420 15525 ft 378 kts 111°
2026-05-07 19:36 51.62726 11.23312 14912 ft 371 kts 111°
2026-05-07 19:36 51.61676 11.27076 14265 ft 369 kts 119°
2026-05-07 19:37 51.60236 11.30437 13630 ft 356 kts 125°
2026-05-07 19:37 51.58972 11.33696 12880 ft 334 kts 110°
2026-05-07 19:37 51.58614 11.37273 12146 ft 317 kts 90°
2026-05-07 19:37 51.58696 11.40738 11518 ft 304 kts 85°
2026-05-07 19:38 51.58853 11.44068 10905 ft 293 kts 84°
2026-05-07 19:38 51.59014 11.47285 10313 ft 286 kts 84°
2026-05-07 19:38 51.59171 11.50424 10093 ft 274 kts 84°
2026-05-07 19:38 51.59326 11.53524 10100 ft 280 kts 84°
2026-05-07 19:39 51.59481 11.56624 10103 ft 283 kts 84°
2026-05-07 19:39 51.59637 11.59779 10105 ft 284 kts 84°
2026-05-07 19:39 51.59795 11.62971 9752 ft 291 kts 84°
2026-05-07 19:39 51.59959 11.66213 8966 ft 289 kts 84°
2026-05-07 19:40 51.60111 11.69408 8188 ft 283 kts 85°
2026-05-07 19:40 51.59754 11.72485 7293 ft 284 kts 114°
2026-05-07 19:40 51.58447 11.74847 6463 ft 285 kts 141°
2026-05-07 19:40 51.56796 11.76542 5713 ft 279 kts 148°
2026-05-07 19:41 51.55083 11.77922 5022 ft 272 kts 161°
2026-05-07 19:41 51.53293 11.77793 4879 ft 250 kts 200°
2026-05-07 19:41 51.51951 11.76211 4948 ft 235 kts 223°
2026-05-07 19:41 51.50733 11.74409 4966 ft 240 kts 213°
2026-05-07 19:42 51.49104 11.73815 4951 ft 258 kts 173°
2026-05-07 19:42 51.47467 11.74977 4849 ft 263 kts 139°
2026-05-07 19:42 51.46384 11.77331 4374 ft 262 kts 117°
2026-05-07 19:42 51.45598 11.79880 4423 ft 256 kts 114°
2026-05-07 19:43 51.44815 11.82487 4113 ft 264 kts 114°
2026-05-07 19:43 51.44024 11.85135 3504 ft 261 kts 114°
2026-05-07 19:43 51.43245 11.87727 2992 ft 254 kts 114°
2026-05-07 19:43 51.42511 11.90158 2986 ft 229 kts 114°
2026-05-07 19:44 51.41859 11.92314 2981 ft 209 kts 114°
2026-05-07 19:44 51.41235 11.94378 2985 ft 205 kts 114°
2026-05-07 19:44 51.40681 11.96462 2932 ft 203 kts 100°
2026-05-07 19:44 51.40955 11.98616 2863 ft 198 kts 59°
2026-05-07 19:45 51.41719 12.00382 3000 ft 184 kts 54°
2026-05-07 19:45 51.42195 12.02245 2847 ft 183 kts 81°
2026-05-07 19:45 51.42303 12.04260 2632 ft 181 kts 84°
2026-05-07 19:45 51.42402 12.06266 2385 ft 180 kts 84°
2026-05-07 19:46 51.42494 12.08264 2127 ft 179 kts 84°
2026-05-07 19:46 51.42587 12.10227 1879 ft 168 kts 84°
2026-05-07 19:46 51.42664 12.11903 1641 ft 136 kts 84°
2026-05-07 19:46 51.42734 12.13308 1465 ft 120 kts 83°
2026-05-07 19:47 51.42793 12.14637 1311 ft 119 kts 83°
2026-05-07 19:47 51.42860 12.15960 1154 ft 121 kts 84°
2026-05-07 19:47 51.42919 12.17292 1006 ft 119 kts 84°
2026-05-07 19:47 51.42984 12.18598 822 ft 121 kts 83°
2026-05-07 19:48 51.43060 12.19959 663 ft 123 kts 83°
2026-05-07 19:48 51.43115 12.21287 503 ft 116 kts 84°
2026-05-07 19:48 51.43172 12.22509 429 ft 90 kts 86°
2026-05-07 19:48 51.43203 12.23252 431 ft 58 kts 86°
2026-05-07 19:49 51.43228 12.23856 438 ft 50 kts 86°
2026-05-07 19:49 51.43246 12.24262 438 ft 34 kts 86°
2026-05-07 19:49 51.43204 12.24635 432 ft 28 kts 115°
2026-05-07 19:49 51.43142 12.24835 438 ft 13 kts 116°
2026-05-07 19:50 51.43126 12.24886 441 ft 0 kts 116°
2026-05-07 19:51 51.43122 12.24898 444 ft 6 kts 116°
2026-05-07 19:51 51.43086 12.25014 446 ft 18 kts 115°
2026-05-07 19:51 51.43025 12.25123 440 ft 13 kts 187°
2026-05-07 19:51 51.42913 12.25079 444 ft 21 kts 193°
2026-05-07 19:52 51.42766 12.25021 452 ft 20 kts 194°
2026-05-07 19:52 51.42644 12.24973 459 ft 17 kts 194°
2026-05-07 19:52 51.42502 12.24920 467 ft 22 kts 193°
2026-05-07 19:52 51.42353 12.24865 477 ft 22 kts 193°
2026-05-07 19:53 51.42208 12.24808 487 ft 21 kts 194°
2026-05-07 19:53 51.42056 12.24748 488 ft 25 kts 194°
2026-05-07 19:53 51.41880 12.24679 483 ft 25 kts 193°
2026-05-07 19:53 51.41708 12.24616 475 ft 23 kts 193°
2026-05-07 19:54 51.41653 12.24469 474 ft 22 kts 265°
2026-05-07 19:54 51.41641 12.24221 475 ft 22 kts 266°
2026-05-07 19:54 51.41630 12.23969 470 ft 24 kts 265°
2026-05-07 19:54 51.41617 12.23702 468 ft 25 kts 265°
2026-05-07 19:55 51.41604 12.23417 463 ft 26 kts 266°
2026-05-07 19:55 51.41618 12.23123 459 ft 27 kts 285°
2026-05-07 19:55 51.41667 12.22827 450 ft 25 kts 285°
2026-05-07 19:55 51.41712 12.22575 434 ft 24 kts 285°
2026-05-07 19:56 51.41761 12.22294 430 ft 27 kts 285°
2026-05-07 19:56 51.41805 12.22036 432 ft 21 kts 285°
2026-05-07 19:56 51.41844 12.21809 432 ft 21 kts 285°
2026-05-07 19:56 51.41882 12.21591 430 ft 20 kts 285°
2026-05-07 19:57 51.41909 12.21433 422 ft 15 kts 285°
2026-05-07 19:57 51.41933 12.21346 425 ft 5 kts 347°
2026-05-07 19:57 51.41966 12.21358 430 ft 5 kts 16°
2026-05-07 19:57 51.42002 12.21375 431 ft 4 kts 15°
2026-05-07 19:58 51.42005 12.21376 431 ft 0 kts 15°